SCP
0 0 0 0 0 0 0 0 0 0 0 0 0 0 0 0 0 0 0 0 0 0 0 0 0 0 0 0 0 0 0 0 0 0 0 0 0 0 0 0 0 0 0
0 0 0 0 0 0 0 0 0 0 0 0 0 0 0 0 0 0 0 0 0 0 0 0 0 0 0 0 0 0 0 0 0 0 0 0 0 0 0 0 0 0 0
0 0 0 0 0 0 0 0 0 0 0 0 0 0 0 0 0 0 0 0 0 0 0 0 0 0 0 0 0 0 0 0 0 0 0 0 0 0 0 0 0 0 0
0 0 0 0 0 0 0 0 0 0 0 0 0 0 0 0 0 0 0 0 0 0 0 0 0 0 0 0 0 0 0 0 0 0 0 0 0 0 0 0 0 0 0
0 0 0 0 0 0 0 0 0 0 0 0 0 0 0 0 0 0 0 0 0 0 0 0 0 0 0 0 0 0 0 0 0 0 0 0 0 0 0 0 0 0 0
0 0 0 0 0 0 0 0 0 0 0 0 0 0 0 0 0 0 0 0 0 0 0 0 0 0 0 0 0 0 0 0 0 0 0 0 0 0 0 0 0 0 0
0 0 0 0 0 0 0 0 0 0 0 0 0 0 0 0 0 0 0 0 0 0 0 0 0 0 0 0 0 0 0 0 0 0 0 0 0 0 0 0 0 0 0
0 0 0 0 0 0 0 0 0 0 0 0 0 0 0 0 0 0 0 0 0 0 0 0 0 0 0 0 0 0 0 0 0 0 0 0 0 0 0 0 0 0 0
0 0 0 0 0 0 0 0 0 0 0 0 0 0 0 0 0 0 0 0 0 0 0 0 0 0 0 0 0 0 0 0 0 0 0 0 0 0 0 0 0 0 0
0 0 0 0 0 0 0 0 0 0 0 0 0 0 0 0 0 0 0 0 0 0 0 0 0 0 0 0 0 0 0 0 0 0 0 0 0 0 0 0 0 0 0
0 0 0 0 0 0 0 0 0 0 0 0 0 0 0 0 0 0 0 0 0 0 0 0 0 0 0 0 0 0 0 0 0 0 0 0 0 0 0 0 0 0 0
0 0 0 0 0 0 0 0 0 0 0 0 0 0 0 0 0 0 0 0 0 0 0 0 0 0 0 0 0 0 0 0 0 0 0 0 0 0 0 0 0 0 0
0 0 0 0 0 0 0 0 0 0 0 0 0 0 0 0 0 0 0 0 0 0 0 0 0 0 0 0 0 0 0 0 0 0 0 0 0 0 0 0 0 0 0
0 0 0 0 0 0 0 0 0 0 0 0 0 0 0 0 0 0 0 0 0 0 0 0 0 0 0 0 0 0 0 0 0 0 0 0 0 0 0 0 0 0 0
0 0 0 0 0 0 0 0 0 0 0 0 0 0 0 0 0 0 0 0 0 0 0 0 0 0 0 0 0 0 0 0 0 0 0 0 0 0 0 0 0 0 0
0 0 0 0 0 0 0 0 0 0 0 0 0 0 0 0 0 0 0 0 0 0 0 0 0 0 0 0 0 0 0 0 0 0 0 0 0 0 0 0 0 0 0
0 0 0 0 0 0 0 0 0 0 0 0 0 0 0 0 0 0 0 0 0 0 0 0 0 0 0 0 0 0 0 0 0 0 0 0 0 0 0 0 0 0 0
0 0 0 0 0 0 0 0 0 0 0 0 0 0 0 0 0 0 0 0 0 0 0 0 0 0 0 0 0 0 0 0 0 0 0 0 0 0 0 0 0 0 0
0 0 0 0 0 0 0 0 0 0 0 0 0 0 0 0 0 0 0 0 0 0 0 0 0 0 0 0 0 0 0 0 0 0 0 0 0 0 0 0 0 0 0
0 0 0 0 0 0 0 0 0 0 0 0 0 0 0 0 0 0 0 0 0 0 0 0 0 0 0 0 0 0 0 0 0 0 0 0 0 0 0 0 0 0 0
0 0 0 0 0 0 0 0 0 0 0 0 0 0 0 0 0 0 0 0 0 0 0 0 0 0 0 0 0 0 0 0 0 0 0 0 0 0 0 0 0 0 0
0 0 0 0 0 0 0 0 0 0 0 0 0 0 0 0 0 0 0 0 0 0 0 0 0 0 0 0 0 0 0 0 0 0 0 0 0 0 0 0 0 0 0
0 0 0 0 0 0 0 0 0 0 0 0 0 0 0 0 0 0 0 0 0 0 0 0 0 0 0 0 0 0 0 0 0 0 0 0 0 0 0 0 0 0 0
0 0 0 0 0 0 0 0 0 0 0 0 0 0 0 0 0 0 0 0 0 0 0 0 0 0 0 0 0 0 0 0 0 0 0 0 0 0 0 0 0 0 0
0 0 0 0 0 0 0 0 0 0 0 0 0 0 0 0 0 0 0 0 0 0 0 0 0 0 0 0 0 0 0 0 0 0 0 0 0 0 0 0 0 0 0
0 0 0 0 0 0 0 0 0 0 0 0 0 0 0 0 0 0 0 0 0 0 0 0 0 0 0 0 0 0 0 0 0 0 0 0 0 0 0 0 0 0 0
Wind_Speed
1 1 1 1 2 2 2 2 2 3 3 4 3 4 4 4 3 3 3 8 9 9 10 10 10 10 10 10 10 10 10 10 9 9 9 9 9 9 8 7 6 7 7
2 2 2 2 2 2 2 2 3 3 2 2 3 4 4 4 4 4 3 4 8 9 9 10 10 10 10 10 10 10 11 10 10 10 9 9 9 10 10 9 8 7 6
2 2 2 2 2 2 2 2 3 2 3 3 3 3 3 3 3 4 3 2 3 6 8 9 10 10 10 11 11 10 10 11 11 10 10 10 10 10 10 10 10 8 6
3 2 2 1 2 2 2 2 2 2 3 3 2 2 2 2 3 3 2 3 2 3 5 8 9 10 10 10 10 10 10 10 10 10 10 10 10 10 10 10 10 9 7
3 2 2 2 2 2 2 2 2 2 2 3 2 1 1 1 1 2 2 3 3 3 2 4 7 8 9 9 10 10 10 10 9 10 10 10 10 11 11 10 10 10 9
2 2 1 2 2 2 2 2 2 2 1 2 3 2 1 1 0 1 1 2 2 3 3 3 3 4 7 8 10 10 11 10 10 10 10 10 10 11 11 11 10 10 10
2 2 1 2 2 2 2 2 2 2 2 2 2 2 1 1 1 1 1 1 1 2 2 2 2 2 3 7 8 9 10 11 10 10 10 10 10 11 11 12 11 11 11
1 1 1 1 1 1 2 2 2 1 1 2 1 1 2 2 1 1 1 1 1 1 1 1 1 2 2 2 5 8 10 10 10 10 10 10 10 11 11 11 11 11 11
1 1 1 1 1 1 1 1 1 1 1 1 1 1 1 1 2 1 1 1 1 0 0 0 0 1 2 1 2 5 8 9 10 10 10 10 10 11 11 11 11 11 11
1 1 0 0 0 0 0 1 0 0 0 1 1 0 1 1 0 3 2 1 1 1 1 1 0 0 0 1 2 4 7 8 10 10 11 11 11 11 11 11 12 12 12
1 1 1 1 1 0 0 0 0 1 0 1 1 1 1 1 1 2 3 3 2 2 1 1 1 1 0 0 1 3 6 8 10 10 11 11 11 11 11 11 12 12 12
2 2 1 1 1 1 1 1 1 1 1 1 1 1 1 1 1 1 3 3 3 3 2 2 2 1 1 1 2 4 6 8 9 10 11 11 11 12 12 12 12 12 12
1 2 1 1 1 2 1 1 1 1 1 2 2 2 1 2 2 1 2 3 3 3 2 2 2 2 1 1 1 4 5 7 8 10 11 11 11 11 11 12 12 12 12
1 1 1 1 2 2 2 1 1 2 2 2 3 2 2 2 2 2 2 2 4 3 2 3 2 2 1 1 2 4 3 7 8 9 10 11 11 11 11 12 12 12 12
1 1 1 1 2 2 2 2 2 2 2 2 3 3 2 2 2 2 2 2 2 4 4 3 2 1 1 1 3 2 2 6 9 9 10 10 10 11 11 11 11 12 12
1 1 1 2 2 2 2 2 2 2 3 3 3 3 3 3 2 2 2 2 3 4 5 3 2 2 3 2 4 2 3 8 9 10 11 10 11 11 11 11 11 11 11
2 2 2 2 2 3 3 3 3 3 4 4 3 4 4 4 3 3 2 3 3 4 7 6 3 3 3 3 4 3 3 4 4 9 11 11 11 11 11 11 11 11 11
2 2 2 2 3 3 3 3 4 4 4 4 4 4 5 4 4 3 3 4 4 4 5 8 4 3 4 4 4 4 4 3 3 8 11 11 11 11 11 11 11 11 11
2 2 3 3 3 3 3 4 4 4 4 4 4 5 5 4 5 4 4 4 4 4 4 5 6 3 3 3 3 4 4 4 4 7 10 11 11 11 11 11 11 11 10
2 3 3 3 3 3 4 4 4 4 4 4 5 5 5 5 6 5 5 5 4 4 4 5 5 4 4 4 3 3 4 3 4 4 7 8 9 11 11 11 10 10 10
3 3 3 3 3 3 4 4 4 4 4 5 5 5 6 7 9 8 6 5 4 4 4 5 6 5 5 3 3 3 4 4 4 3 3 4 4 4 5 8 9 10 10
3 3 3 4 4 4 6 8 6 4 4 5 6 6 6 7 10 13 14 13 10 7 6 6 6 7 7 5 4 4 3 4 5 2 2 4 3 4 4 3 8 11 11
3 3 4 4 4 5 9 10 10 5 5 5 6 6 6 6 9 6 10 13 13 16 15 9 8 9 7 5 4 4 4 5 6 3 2 5 3 5 4 5 11 12 11
3 4 4 4 5 6 10 11 11 6 5 6 6 7 7 7 7 7 6 7 7 8 10 8 8 8 7 5 5 6 6 6 6 4 3 5 4 4 4 4 10 11 11
3 4 4 4 5 7 10 11 11 4 5 6 6 6 7 7 11 14 8 7 7 7 11 14 14 13 13 13 9 4 3 4 6 4 3 3 3 3 4 4 6 9 10
4 4 4 5 6 6 10 12 11 4 5 5 5 6 10 11 13 14 8 6 8 7 6 7 8 10 9 9 12 6 4 5 5 4 2 2 2 2 4 3 2 2 4
Wind_Direction
46 40 68 51 39 22 15 351 357 11 14 19 24 24 25 25 36 56 57 49 41 32 25 23 21 20 20 24 26 27 27 26 23 20 15 9 6 0 347 331 315 303 293
47 35 46 45 28 18 3 360 14 12 11 21 24 27 26 19 29 38 51 47 45 39 33 28 25 23 23 25 26 27 26 22 19 17 14 11 7 3 358 350 336 321 312
36 41 47 39 18 12 10 15 13 14 12 21 29 29 29 25 30 33 40 46 42 42 41 37 32 29 25 23 24 25 26 22 19 15 11 9 5 1 357 354 351 338 324
34 39 42 32 17 22 18 15 18 16 15 15 14 12 21 26 30 32 40 47 47 48 44 43 37 32 27 25 23 21 21 19 14 10 8 7 4 359 354 350 347 343 331
36 51 43 23 21 32 22 13 26 24 16 3 339 348 19 26 20 36 47 54 50 48 43 43 38 33 27 24 20 16 14 12 8 3 1 359 356 352 349 345 343 340 336
42 40 52 33 22 31 23 23 17 18 12 342 327 321 268 208 149 61 58 60 57 52 42 36 30 24 27 24 18 13 7 4 2 359 357 356 353 349 346 342 340 338 334
58 44 34 42 29 33 22 21 19 8 5 358 352 325 293 214 160 132 91 68 57 54 48 37 25 19 14 21 13 8 3 0 356 354 352 350 349 348 347 349 347 342 337
74 61 54 48 41 28 16 18 21 4 349 26 26 347 341 342 324 169 131 125 72 33 36 31 20 23 23 23 8 6 0 355 351 347 345 343 343 342 341 342 343 347 349
86 74 33 44 42 46 25 3 8 18 337 331 65 85 34 302 322 296 225 170 156 198 278 279 42 28 16 25 7 360 357 352 347 344 344 345 345 344 343 342 342 343 346
104 104 78 17 7 24 342 301 21 345 347 292 316 313 190 184 269 312 306 284 248 245 253 288 313 235 6 5 5 354 347 342 340 340 340 340 341 341 340 340 340 339 340
165 159 193 212 232 227 222 284 315 305 257 242 278 305 306 292 233 230 279 298 311 280 255 241 222 221 246 297 306 336 333 332 332 332 332 333 335 336 336 337 336 336 335
173 175 187 213 222 219 217 225 233 264 260 256 260 260 248 251 270 258 269 287 290 283 276 245 224 218 219 240 288 324 323 325 325 325 326 327 330 331 331 332 332 331 329
182 189 184 206 225 221 217 213 215 244 253 248 247 250 248 244 249 263 269 284 290 284 270 258 223 211 222 214 262 305 309 313 316 317 318 321 324 326 326 326 326 326 325
196 172 179 218 235 235 226 211 219 231 236 244 257 257 255 261 256 239 236 265 294 289 267 264 259 220 218 223 249 275 289 300 304 306 310 314 317 319 319 319 320 321 322
191 178 183 227 241 244 233 219 222 232 229 231 238 245 248 255 254 248 235 211 233 280 284 263 273 269 266 244 258 255 257 287 297 298 301 305 307 309 310 312 314 315 317
199 205 208 227 238 238 232 225 232 236 235 239 229 233 241 242 244 240 233 232 222 238 267 266 265 274 276 274 265 253 252 282 289 292 295 296 298 301 304 305 308 309 310
217 229 225 231 238 243 236 226 231 232 235 245 246 238 243 240 239 242 235 233 235 234 260 274 263 271 275 275 280 265 257 256 270 284 290 291 292 294 296 299 301 303 305
224 234 239 237 239 242 238 231 236 237 235 239 243 243 247 246 243 240 236 237 238 235 247 269 276 269 266 266 267 271 274 266 256 276 284 287 288 290 292 294 297 298 300
228 237 242 245 244 245 242 240 236 240 241 240 241 242 246 242 248 244 240 242 244 250 244 257 271 267 266 267 275 277 274 273 271 277 281 282 286 290 291 291 294 294 295
231 236 239 244 245 248 245 246 241 243 248 249 247 246 246 240 244 246 247 246 244 249 251 256 265 271 268 265 261 270 282 274 276 281 278 281 287 289 289 291 293 293 292
236 237 243 248 246 247 244 244 246 248 251 258 258 254 252 248 247 250 252 246 241 245 250 255 263 270 266 263 260 260 272 282 277 264 268 275 281 277 279 281 284 286 289
244 246 250 251 252 257 261 266 265 253 253 256 262 262 259 256 256 261 262 259 249 245 245 249 257 257 262 255 255 258 268 283 284 269 267 275 263 265 259 249 274 284 287
244 250 251 250 254 256 264 270 270 265 252 255 257 260 267 262 266 256 262 264 261 257 252 247 249 253 257 251 249 260 258 262 264 262 273 275 264 265 261 272 280 282 282
242 247 251 250 252 258 267 272 275 268 256 255 255 255 259 262 259 261 257 258 255 257 255 250 248 252 250 245 236 243 250 264 268 258 235 264 267 265 275 273 276 275 280
252 252 254 254 258 265 269 273 276 260 256 260 260 260 262 262 269 273 268 262 266 265 266 260 254 254 256 258 255 250 249 263 273 266 221 243 267 279 277 270 270 273 281
247 254 260 255 253 258 268 276 277 256 259 266 266 263 268 272 275 277 268 260 265 267 264 267 264 263 258 257 257 241 227 247 264 270 228 224 253 287 296 283 276 280 287